Orbital Elements at Epoch 2459200.5 (2020-Dec-17.0) TDB
Reference: JPL 35 (heliocentric ecliptic J2000)
Element | Value | Uncertainty (1-sigma) | Units |
e | .08954352231723914 | 1.4467e-08 | |
a | 3.001362085863212 | 1.4382e-08 | au |
q | 2.732609552945604 | 4.8103e-08 | au |
i | 1.833154135959351 | 1.0548e-06 | deg |
node | 299.6270326341302 | 4.438e-05 | deg |
peri | 63.59779485654776 | 4.5594e-05 | deg |
M | 185.6350211425162 | 1.6044e-05 | deg |
tp | 2460120.383387204915 (2023-Jun-24.88338720) | 8.695e-05 | TDB |
period | 1899.223236017132 5.20 | 1.3651e-05 3.737e-08 | d yr |
n | .1895511771196298 | 1.3624e-09 | deg/d |
Q | 3.27011461878082 | 1.567e-08 | au |
|
| | Orbit Determination Parameters
Additional Information
|